Location: Bethera
(33.2010°N, 79.7880°W)
Time: 04:00:51
(UTC-05:00)

Amateur Radio Satellites - All Passes

Search period start: 25 February 2017 03:30
Search period end: 26 February 2017 03:30
Location: Bethera, 33.2010°N, 79.7880°W

Satellite Date Start Highest point End Downlink Frequencies (MHz)
Time Altitude Azimuth
RS-15 25 Feb 03:42:45 03:54:50 69° 248° (WSW) 04:06:20 29.354- 29.394
KKS-1 25 Feb 03:45:52 03:50:09 51° 74° (ENE) 03:54:27 437.445
AO-7 25 Feb 03:48:08 03:56:25 67° 104° (ESE) 04:04:37 .
SRMSAT 25 Feb 03:59:44 04:03:21 16° 192° (SSW) 04:06:58 437.500
CUBESAT XI-V 25 Feb 04:09:39 04:14:13 55° 75° (ENE) 04:18:45 437.345
STARS 25 Feb 04:21:06 04:25:21 56° 75° (ENE) 04:29:39 437.465
ITAMSAT 1 25 Feb 04:24:19 04:28:54 32° 290° (WNW) 04:33:28 435.822/435.867
AO-85 25 Feb 04:34:11 04:38:47 57° 300° (WNW) 04:43:03 145.980
M-CUBED/EXP-1 PRIME 25 Feb 04:57:23 05:00:40 60° 254° (WSW) 05:03:54 437.505
KKS-1 25 Feb 05:25:53 05:26:56 11° 267° (W) 05:28:00 437.445
CUTE-I 25 Feb 05:30:31 05:33:49 16° 94° (E) 05:37:06 437.470
AO-7 25 Feb 05:42:14 05:48:26 24° 301° (WNW) 05:54:38 .
CUBESAT XI-V 25 Feb 05:50:29 05:51:50 11° 268° (W) 05:53:11 437.345
KAITUO 1B 25 Feb 05:52:13 05:55:04 20° 96° (E) 05:57:53 145.475/437.950
XW-2F 25 Feb 05:56:00 05:59:19 28° 97° (E) 06:02:35 145.980 - 146.000
BEESAT 3 25 Feb 05:56:58 06:00:44 57° 116° (ESE) 06:04:37 437.485
XW-2D 25 Feb 06:00:17 06:03:47 34° 98° (E) 06:07:15 145.860 - 145.880
RS-15 25 Feb 06:02:13 06:04:52 11° 265° (W) 06:07:31 29.354- 29.394
STRAND 1 25 Feb 06:04:00 06:08:00 23° 68° (ENE) 06:12:01 437.568
XW-2B 25 Feb 06:05:15 06:08:50 38° 98° (E) 06:12:23 145.730 - 145.750
DOVE 4 25 Feb 06:09:16 06:13:59 55° 100° (E) 06:18:56 437.250
XW-2C 25 Feb 06:13:45 06:17:29 52° 99° (E) 06:21:11 145.795 - 145.815
ISS 25 Feb 06:23:09 06:23:52 11° 125° (SE) 06:24:34 437.550
NUDT-PHONESAT 25 Feb 06:26:49 06:30:33 64° 101° (E) 06:34:14 437.300
LilacSat-2 25 Feb 06:30:10 06:34:02 85° 282° (WNW) 06:37:50 437.200
BEESAT 2 25 Feb 06:34:26 06:38:17 59° 115° (ESE) 06:42:12 435.950
HO-68 25 Feb 06:43:21 06:48:15 19° 94° (E) 06:53:07 435.675
Tancredo 1 25 Feb 06:47:35 06:50:10 22° 129° (SE) 06:52:45 437.200
CUTE 1.7 + AOD 2 25 Feb 06:52:38 06:54:50 14° 93° (E) 06:56:59 437.475
CUTE-I 25 Feb 07:08:52 07:14:04 50° 288° (WNW) 07:19:14 437.470
CUBEBUG 2 25 Feb 07:10:06 07:10:09 10° 91° (E) 07:10:11 437.445
KAITUO 1B 25 Feb 07:26:13 07:28:57 19° 289° (WNW) 07:31:40 145.475/437.950
SO-50 25 Feb 07:26:51 07:31:16 54° 59° (ENE) 07:35:38 436.795
XW-2F 25 Feb 07:31:01 07:33:11 15° 291° (WNW) 07:35:20 145.980 - 146.000
XW-2D 25 Feb 07:36:01 07:37:36 12° 292° (WNW) 07:39:12 145.860 - 145.880
BEESAT 3 25 Feb 07:37:42 07:38:42 11° 311° (NW) 07:39:42 437.485
AAUSAT CUBESAT 2 25 Feb 07:40:16 07:42:41 15° 94° (E) 07:45:06 437.432
XW-2B 25 Feb 07:41:31 07:42:37 11° 292° (WNW) 07:43:41 145.730 - 145.750
STRAND 1 25 Feb 07:42:19 07:46:56 34° 262° (W) 07:51:35 437.568
XW-2A 25 Feb 07:44:12 07:47:39 67° 283° (WNW) 07:51:04 145.665 - 145.685
UWE-3 25 Feb 07:45:22 07:48:19 17° 93° (E) 07:51:13 435.000/436.395/437.385
SEEDS 25 Feb 07:48:53 07:52:53 44° 99° (E) 07:56:50 437.485
DOVE 4 25 Feb 07:48:56 07:51:14 13° 292° (WNW) 07:53:35 437.250
ISS 25 Feb 07:56:43 07:59:56 52° 318° (NW) 08:03:10 437.550
ZACube-1 25 Feb 08:07:04 08:09:54 16° 93° (E) 08:12:40 437.345
O/OREOS (USA 219) 25 Feb 08:13:01 08:16:38 22° 63° (ENE) 08:20:14 437.305
BEESAT 2 25 Feb 08:15:31 08:16:25 11° 312° (NW) 08:17:20 435.950
Tancredo 1 25 Feb 08:23:32 08:26:20 26° 323° (NW) 08:29:08 437.200
CUTE 1.7 + AOD 2 25 Feb 08:26:53 08:30:44 36° 287° (WNW) 08:34:35 437.475
HO-68 25 Feb 08:29:17 08:36:20 64° 289° (WNW) 08:43:21 435.675
PRISM 25 Feb 08:41:17 08:45:06 39° 73° (ENE) 08:48:54 437.425
CUBEBUG 2 25 Feb 08:42:23 08:47:06 63° 284° (WNW) 08:51:44 437.445
UNISAT 6 25 Feb 08:48:29 08:51:38 19° 68° (ENE) 08:54:50 437.425
TIGRISAT 25 Feb 08:49:03 08:52:01 18° 68° (ENE) 08:55:04 435.000
YUBILEINY 25 Feb 08:49:07 08:52:34 13° 78° (ENE) 08:56:01 435.215
AO-73 25 Feb 08:54:20 08:58:46 54° 100° (E) 09:03:06 145.935
Oscar 11 25 Feb 09:01:20 09:05:35 55° 101° (E) 09:09:47 .
FO-29 25 Feb 09:02:33 09:07:44 22° 62° (ENE) 09:13:12 435.910
SO-50 25 Feb 09:09:39 09:11:11 12° 253° (WSW) 09:12:44 436.795
DELFI C3 25 Feb 09:14:17 09:17:15 20° 96° (E) 09:20:12 145.870
AAUSAT CUBESAT 2 25 Feb 09:14:32 09:18:11 31° 287° (WNW) 09:21:49 437.432
UWE-3 25 Feb 09:20:33 09:24:52 38° 287° (WNW) 09:29:04 435.000/436.395/437.385
SEEDS 25 Feb 09:26:35 09:28:07 12° 293° (WNW) 09:29:40 437.485
ZACube-1 25 Feb 09:42:05 09:46:15 36° 287° (WNW) 09:50:20 437.345
O/OREOS (USA 219) 25 Feb 09:52:05 09:55:58 28° 257° (WSW) 09:59:51 437.305
AIST 2D 25 Feb 10:07:20 10:09:15 14° 70° (ENE) 10:11:10 435.315
POLYITAN 1 25 Feb 10:09:35 10:10:43 11° 66° (ENE) 10:11:51 437.675
QB50P2 25 Feb 10:11:43 10:13:37 13° 67° (ENE) 10:15:32 145.880/145.840
PRISM 25 Feb 10:18:54 10:20:30 12° 266° (W) 10:22:06 437.425
UNISAT 6 25 Feb 10:24:03 10:28:03 32° 263° (W) 10:32:09 437.425
TIGRISAT 25 Feb 10:24:19 10:28:22 35° 262° (W) 10:32:33 435.000
AO-73 25 Feb 10:32:51 10:34:26 12° 294° (WNW) 10:36:01 145.935
YUBILEINY 25 Feb 10:39:08 10:47:58 86° 95° (E) 10:56:49 435.215
Oscar 11 25 Feb 10:40:28 10:41:10 10° 294° (WNW) 10:41:52 .
FO-29 25 Feb 10:45:03 10:51:54 66° 259° (W) 10:59:31 435.910
DELFI C3 25 Feb 10:48:55 10:51:55 21° 289° (WNW) 10:54:55 145.870
ESTCUBE 1 25 Feb 10:59:15 11:02:45 22° 96° (E) 11:06:14 437.505/2401.250
DUCHIFAT 1 25 Feb 11:13:40 11:17:45 55° 75° (ENE) 11:21:53 145.980
EO-79 25 Feb 11:24:15 11:28:27 87° 256° (WSW) 11:32:43 145.935-145.965
VELOX 1 25 Feb 11:26:13 11:28:17 13° 94° (E) 11:30:20 145.980
LO-87 25 Feb 11:32:59 11:36:29 51° 284° (WNW) 11:39:59 145.935 - 145.965
SPROUT 25 Feb 11:34:51 11:36:52 13° 93° (E) 11:38:53 437.525
AIST 2D 25 Feb 11:39:14 11:42:12 25° 263° (W) 11:45:12 435.315
NANOSAT C BR1 25 Feb 11:41:24 11:45:31 57° 260° (W) 11:49:41 145.865
POLYITAN 1 25 Feb 11:41:53 11:45:59 51° 260° (W) 11:50:08 437.675
QB50P2 25 Feb 11:44:58 11:48:58 43° 261° (W) 11:53:01 145.880/145.840
Oscar 19 25 Feb 11:48:12 11:50:49 14° 65° (ENE) 11:53:25 437.125/150
50 SAT 25 Feb 12:02:28 12:05:07 20° 97° (E) 12:07:45 437.505
BUGSAT 1 25 Feb 12:11:00 12:15:02 89° 83° (E) 12:19:08 437.445
Gurwin Techsat 1B 25 Feb 12:31:24 12:35:19 21° 67° (ENE) 12:39:15 435.225
ESTCUBE 1 25 Feb 12:35:45 12:39:28 26° 289° (WNW) 12:43:10 437.505/2401.250
YUBILEINY 25 Feb 12:40:41 12:45:45 16° 292° (WNW) 12:50:51 435.215
DX 1 25 Feb 12:52:09 12:56:27 58° 101° (E) 13:00:44 434.975-435.025
AO-7 25 Feb 12:57:10 12:59:10 11° 51° (NE) 13:01:10 .
VELOX 1 25 Feb 13:00:42 13:04:53 43° 287° (WNW) 13:09:04 145.980
UKube-1 25 Feb 13:04:18 13:08:33 56° 101° (E) 13:12:46 .
SPROUT 25 Feb 13:08:52 13:12:55 41° 286° (WNW) 13:16:57 437.525
AO-85 25 Feb 13:09:40 13:13:10 31° 57° (ENE) 13:16:44 145.980
Oscar 19 25 Feb 13:24:31 13:29:35 58° 259° (W) 13:34:40 437.125/150
50 SAT 25 Feb 13:35:51 13:38:03 16° 290° (WNW) 13:40:15 437.505
ITAMSAT 1 25 Feb 13:59:12 14:03:26 26° 69° (ENE) 14:07:42 435.822/435.867
Gurwin Techsat 1B 25 Feb 14:10:01 14:14:56 39° 261° (W) 14:19:55 435.225
BEESAT 3 25 Feb 14:20:15 14:20:54 10° 48° (NE) 14:21:34 437.485
ISS 25 Feb 14:28:06 14:30:48 23° 36° (NE) 14:33:29 437.550
DX 1 25 Feb 14:31:29 14:32:05 10° 295° (WNW) 14:32:41 434.975-435.025
AO-7 25 Feb 14:42:05 14:50:18 64° 69° (ENE) 14:58:31 .
UKube-1 25 Feb 14:43:16 14:44:02 10° 295° (WNW) 14:44:49 .
ITUPSAT 1 25 Feb 14:44:07 14:48:41 42° 99° (E) 14:53:11 437.325
BEESAT 25 Feb 14:50:35 14:55:14 51° 100° (E) 14:59:52 436.000
AO-85 25 Feb 14:50:52 14:53:17 16° 250° (WSW) 14:55:44 145.980
Tancredo 1 25 Feb 14:53:23 14:56:28 42° 41° (NE) 14:59:31 437.200
BEESAT 2 25 Feb 14:58:09 14:59:21 11° 49° (NE) 15:00:33 435.950
MOZHAYETS 4 25 Feb 15:11:04 15:15:03 28° 97° (E) 15:18:59
ITAMSAT 1 25 Feb 15:38:09 15:42:43 31° 262° (W) 15:47:18 435.822/435.867
KKS-1 25 Feb 15:42:28 15:44:48 14° 94° (E) 15:47:08 437.445
RS-15 25 Feb 15:49:41 15:59:03 29° 102° (ESE) 16:08:39 29.354- 29.394
PCSat 25 Feb 15:53:13 15:58:33 67° 113° (ESE) 16:03:56 145.827
BEESAT 3 25 Feb 15:54:55 15:58:53 63° 245° (WSW) 16:02:49 437.485
ISS 25 Feb 16:04:26 16:07:13 26° 230° (SW) 16:09:59 437.550
CUBESAT XI-V 25 Feb 16:11:19 16:14:33 19° 95° (E) 16:17:46 437.345
STARS 25 Feb 16:16:04 16:18:27 14° 94° (E) 16:20:50 437.465
ITUPSAT 1 25 Feb 16:23:07 16:26:07 17° 293° (WNW) 16:29:06 437.325
BEESAT 25 Feb 16:30:07 16:32:31 14° 294° (WNW) 16:34:55 436.000
Tancredo 1 25 Feb 16:31:04 16:32:24 12° 234° (SW) 16:33:46 437.200
BEESAT 2 25 Feb 16:33:29 16:37:29 59° 244° (WSW) 16:41:26 435.950
AO-7 25 Feb 16:37:05 16:43:25 24° 264° (W) 16:49:48 .
M-CUBED/EXP-1 PRIME 25 Feb 16:40:56 16:42:11 11° 100° (E) 16:43:28 437.505
XW-2B 25 Feb 16:44:40 16:45:50 11° 68° (ENE) 16:47:00 145.730 - 145.750
CUTE-I 25 Feb 16:48:22 16:51:58 19° 66° (ENE) 16:55:35 437.470
MOZHAYETS 4 25 Feb 16:48:30 16:52:00 22° 290° (WNW) 16:55:28
XW-2C 25 Feb 16:52:16 16:54:24 15° 69° (ENE) 16:56:34 145.795 - 145.815
NO-84 25 Feb 16:52:22 16:55:23 50° 314° (NW) 16:58:42 435.350 FM
NUDT-PHONESAT 25 Feb 17:03:18 17:05:35 16° 70° (ENE) 17:07:54 437.300
LilacSat-2 25 Feb 17:08:10 17:11:20 24° 72° (ENE) 17:14:31 437.200
DOVE 4 25 Feb 17:11:33 17:15:08 29° 73° (ENE) 17:18:45 437.250
KKS-1 25 Feb 17:17:17 17:21:29 42° 287° (WNW) 17:25:42 437.445
PCSat 25 Feb 17:39:15 17:42:25 16° 309° (NW) 17:45:36 145.827
CUBESAT XI-V 25 Feb 17:47:51 17:51:56 32° 288° (WNW) 17:56:00 437.345
STARS 25 Feb 17:50:46 17:54:54 40° 287° (WNW) 17:59:02 437.465
RS-15 25 Feb 17:58:34 18:10:22 71° 301° (WNW) 18:22:44 29.354- 29.394
KAITUO 1B 25 Feb 18:00:46 18:04:33 82° 260° (W) 18:08:23 145.475/437.950
XW-2F 25 Feb 18:05:58 18:09:43 56° 259° (W) 18:13:31 145.980 - 146.000
XW-2D 25 Feb 18:10:52 18:14:33 44° 261° (W) 18:18:15 145.860 - 145.880
XW-2A 25 Feb 18:12:21 18:14:43 18° 71° (ENE) 18:17:06 145.665 - 145.685
M-CUBED/EXP-1 PRIME 25 Feb 18:12:58 18:16:40 44° 289° (WNW) 18:20:38 437.505
XW-2B 25 Feb 18:16:00 18:19:37 39° 261° (W) 18:23:15 145.730 - 145.750
STRAND 1 25 Feb 18:21:30 18:22:01 10° 91° (E) 18:22:33 437.568
XW-2C 25 Feb 18:24:55 18:28:18 30° 263° (W) 18:31:43 145.795 - 145.815
CUTE-I 25 Feb 18:26:30 18:31:35 46° 260° (W) 18:36:44 437.470
NUDT-PHONESAT 25 Feb 18:36:05 18:39:16 26° 263° (W) 18:42:28 437.300
SEEDS 25 Feb 18:37:07 18:40:04 19° 70° (ENE) 18:43:00 437.485
LilacSat-2 25 Feb 18:42:55 18:45:33 18° 265° (W) 18:48:12 437.200
DOVE 4 25 Feb 18:50:20 18:52:53 16° 266° (W) 18:55:27 437.250
HO-68 25 Feb 18:52:35 18:59:39 64° 71° (ENE) 19:06:43 435.675
CUTE 1.7 + AOD 2 25 Feb 19:14:26 19:18:43 86° 77° (ENE) 19:23:01 437.475
JUGNU 25 Feb 19:35:13 19:36:28 11° 163° (SSE) 19:37:42 437.505
CUBEBUG 2 25 Feb 19:35:45 19:40:04 62° 75° (ENE) 19:44:34 437.445
XW-2A 25 Feb 19:45:02 19:47:21 17° 265° (W) 19:49:41 145.665 - 145.685
AO-73 25 Feb 19:45:46 19:49:22 25° 71° (ENE) 19:53:03 145.935
Oscar 11 25 Feb 19:52:12 19:55:46 25° 71° (ENE) 19:59:20 .
STRAND 1 25 Feb 19:56:29 20:01:37 71° 285° (WNW) 20:06:43 437.568
AAUSAT CUBESAT 2 25 Feb 19:59:31 20:03:41 90° 257° (WSW) 20:07:51 437.432
SEEDS 25 Feb 20:11:50 20:15:31 28° 263° (W) 20:19:12 437.485
UWE-3 25 Feb 20:12:23 20:16:47 80° 257° (WSW) 20:21:21 435.000/436.395/437.385
RS-15 25 Feb 20:17:02 20:25:37 21° 327° (NNW) 20:34:23 29.354- 29.394
ZACube-1 25 Feb 20:32:37 20:37:03 81° 260° (W) 20:41:35 437.345
HO-68 25 Feb 20:42:50 20:47:44 20° 266° (W) 20:52:40 435.675
YUBILEINY 25 Feb 20:55:19 21:03:04 34° 75° (ENE) 21:10:43 435.215
JUGNU 25 Feb 21:20:45 21:24:45 19° 172° (S) 21:28:46 437.505
AO-73 25 Feb 21:21:56 21:25:29 24° 265° (W) 21:29:07 145.935
Oscar 11 25 Feb 21:28:24 21:31:47 22° 264° (W) 21:35:11 .
DELFI C3 25 Feb 21:29:00 21:32:57 71° 258° (WSW) 21:36:54 145.870
SO-50 25 Feb 21:36:40 21:41:12 48° 115° (ESE) 21:45:40 436.795
ESTCUBE 1 25 Feb 21:56:03 21:58:10 13° 67° (ENE) 22:00:17 437.505/2401.250
FO-29 25 Feb 22:01:01 22:06:59 26° 92° (E) 22:12:27 435.910
PRISM 25 Feb 22:01:28 22:05:31 66° 284° (WNW) 22:09:33 437.425
LO-87 25 Feb 22:05:12 22:08:15 28° 73° (ENE) 22:11:19 145.935 - 145.965
UNISAT 6 25 Feb 22:19:15 22:23:58 73° 101° (ESE) 22:28:34 437.425
TIGRISAT 25 Feb 22:19:26 22:24:07 67° 101° (E) 22:28:42 435.000
O/OREOS (USA 219) 25 Feb 22:20:20 22:24:40 55° 106° (ESE) 22:29:03 437.305
SRMSAT 25 Feb 22:22:26 22:24:47 12° 164° (SSE) 22:27:08 437.500
RS-15 25 Feb 22:41:58 22:45:36 11° 5° (N) 22:49:13 29.354- 29.394
YUBILEINY 25 Feb 22:51:49 22:59:51 43° 272° (W) 23:07:51 435.215
DUCHIFAT 1 25 Feb 23:03:46 23:05:32 12° 93° (E) 23:07:17 145.980
AIST 2D 25 Feb 23:08:16 23:11:22 28° 97° (E) 23:14:28 435.315
JUGNU 25 Feb 23:08:47 23:13:08 22° 182° (S) 23:17:29 437.505
EO-79 25 Feb 23:13:50 23:17:03 21° 96° (E) 23:20:16 145.935-145.965
SO-50 25 Feb 23:18:49 23:21:52 17° 310° (NW) 23:24:55 436.795
NO-84 25 Feb 23:29:50 23:32:46 18° 38° (NE) 23:35:48 435.350 FM
NANOSAT C BR1 25 Feb 23:30:04 23:33:49 29° 98° (E) 23:37:32 145.865
ESTCUBE 1 25 Feb 23:30:10 23:34:31 48° 260° (W) 23:38:53 437.505/2401.250
POLYITAN 1 25 Feb 23:30:57 23:34:52 33° 98° (E) 23:38:44 437.675
QB50P2 25 Feb 23:33:49 23:37:52 39° 99° (E) 23:41:52 145.880/145.840
LO-87 25 Feb 23:40:20 23:41:45 12° 266° (W) 23:43:08 145.935 - 145.965
DX 1 25 Feb 23:43:45 23:47:28 29° 71° (ENE) 23:51:11 434.975-435.025
FO-29 25 Feb 23:45:02 23:52:15 50° 290° (WNW) 23:58:44 435.910
VELOX 1 25 Feb 23:53:10 23:57:33 86° 261° (W) 00:01:57 145.980
UKube-1 25 Feb 23:54:55 23:58:31 27° 71° (ENE) 00:02:08 .
SPROUT 25 Feb 23:57:23 00:01:38 83° 77° (ENE) 00:05:54 437.525
BUGSAT 1 25 Feb 23:57:45 00:00:41 18° 95° (E) 00:03:36 437.445
TIGRISAT 25 Feb 23:59:29 00:00:08 10° 295° (WNW) 00:00:47 435.000
O/OREOS (USA 219) 26 Feb 00:02:48 00:04:24 12° 302° (WNW) 00:06:00 437.305
50 SAT 26 Feb 00:04:16 00:07:47 88° 267° (W) 00:11:17 437.505
SRMSAT 26 Feb 00:08:59 00:13:17 20° 173° (S) 00:17:35 437.500
DUCHIFAT 1 26 Feb 00:37:18 00:41:21 42° 286° (WNW) 00:45:22 145.980
AIST 2D 26 Feb 00:42:46 00:44:17 12° 291° (WNW) 00:45:49 435.315
PCSat 26 Feb 00:46:01 00:50:17 23° 55° (NE) 00:54:29 145.827
EO-79 26 Feb 00:49:11 00:52:44 26° 289° (WNW) 00:56:16 145.935-145.965
Gurwin Techsat 1B 26 Feb 00:53:46 00:55:01 11° 92° (E) 00:56:17 435.225
RS-15 26 Feb 00:54:41 01:04:42 27° 40° (NE) 01:14:21 29.354- 29.394
JUGNU 26 Feb 00:58:02 01:01:29 16° 192° (SSW) 01:04:56 437.505
NANOSAT C BR1 26 Feb 01:06:20 01:09:16 18° 291° (WNW) 01:12:12 145.865
NO-84 26 Feb 01:06:32 01:10:43 59° 232° (SW) 01:15:05 435.350 FM
POLYITAN 1 26 Feb 01:07:37 01:10:19 17° 292° (WNW) 01:13:01 437.675
QB50P2 26 Feb 01:11:00 01:13:16 14° 292° (WNW) 01:15:31 145.880/145.840
DX 1 26 Feb 01:20:32 01:23:37 19° 264° (W) 01:26:42 434.975-435.025
UKube-1 26 Feb 01:31:19 01:34:29 20° 264° (W) 01:37:40 .
BUGSAT 1 26 Feb 01:32:19 01:36:00 29° 288° (WNW) 01:39:41 437.445
Oscar 19 26 Feb 01:40:12 01:45:19 70° 102° (ESE) 01:50:24 437.125/150
ITUPSAT 1 26 Feb 01:46:49 01:51:01 31° 71° (ENE) 01:55:14 437.325
BEESAT 26 Feb 01:52:48 01:57:10 37° 72° (ENE) 02:01:33 436.000
SRMSAT 26 Feb 01:57:22 02:01:50 22° 184° (S) 02:06:19 437.500
MOZHAYETS 4 26 Feb 02:09:30 02:12:35 18° 68° (ENE) 02:15:42
ITAMSAT 1 26 Feb 02:17:51 02:19:55 12° 92° (E) 02:21:59 435.822/435.867
PCSat 26 Feb 02:28:42 02:33:48 42° 250° (WSW) 02:38:51 145.827
Gurwin Techsat 1B 26 Feb 02:30:05 02:35:23 71° 285° (WNW) 02:40:39 435.225
AO-7 26 Feb 02:49:32 02:56:10 26° 97° (E) 03:02:45 .
CUBESAT XI-V 26 Feb 03:12:01 03:13:52 12° 66° (ENE) 03:15:42 437.345
AO-85 26 Feb 03:19:40 03:23:49 31° 113° (ESE) 03:27:44 145.980
Oscar 19 26 Feb 03:22:16 03:23:59 12° 296° (WNW) 03:25:42 437.125/150
